Simultaneous Nadir Overpasses (SNOs) Predictions

Prediction of SNOs between GOES-15 and TERRA Satellite Orbit:

Table of predicted SNOs for the next 14.0 days since TLE Epoch: 5/13/2023
Index Date Time (GOES-15) GOES-15 Lat,Lon TERRA Lat,Lon Distance(km) Time Diff (sec)
1 05/14/2023 19:44:33 -0.25,-147.70 -0.84,-144.86 322.63 80
2 05/15/2023 08:07:35 0.24,-147.93 -0.17,-149.81 213.99 80
3 05/17/2023 07:48:42 0.25,-148.84 0.84,-145.92 330.98 80
4 05/17/2023 20:11:35 -0.24,-149.07 0.15,-150.84 201.06 80
5 05/19/2023 19:52:42 -0.25,-149.97 -0.88,-146.95 343.27 80
6 05/20/2023 08:15:44 0.24,-150.20 -0.11,-151.91 193.51 80
7 05/22/2023 07:56:50 0.25,-151.09 0.89,-148.01 349.70 80
8 05/22/2023 20:19:43 -0.24,-151.32 0.08,-152.93 182.84 80
9 05/24/2023 20:00:48 -0.26,-152.20 -0.89,-149.03 359.99 80
10 05/25/2023 08:23:49 0.24,-152.43 -0.09,-153.98 176.85 80
